Weather in Ketovo

Russia / Kurgan Oblast     55°20′37″N   65°20′01″E
temp.,
°C
wind,
m/s
gust,
m/s
humid.,
%
clouds,
%
prec.,
mm/h
press.,
hPa
HPBL,
m
8 may, sat
sat823:00+12ssw33485 0.0 102027
02:00+11ssw22525 0.0 102011
05:00+10s22545 0.0 102010
08:00+16s234049 0.0 1020286
11:00+20sse3327100 0.0 10191756
14:00+21sse2323100 0.0 10172359
17:00+21sse1223100 0.0 10162514
20:00+18n223299 0.0 101511
9 may, sun
sun923:00+16ne3435100 0.0 101563
02:00+15ene2239100 0.0 101424
05:00+14ne3542100 0.0 101480
08:00+16e4642100 0.0 1015397
11:00+19e6939100 0.0 10151536
14:00+19e71141100 0.0 10152198
17:00+16e3754100 0.5 1016602
20:00+14ne1172100 0.4 101726
10 may, mon
mon1023:00+14ene41073100 1.1 1017486
02:00+12nne4878100 0.0 1018182
05:00+11ne41059100 0.0 1019269
08:00+13ene6946100 0.0 1021617
11:00+17ene6832100 0.0 10211404
14:00+19ene672599 0.0 10221860
17:00+20ene672449 0.0 10222080
20:00+15ene3540100 0.0 102378
11 may, tue
tue1123:00+12ese33435 0.0 102523
02:00+10sse125013 0.0 102510
05:00+9s11555 0.0 102510
08:00+15wsw224114 0.0 1026254
11:00+19sw2230100 0.0 10261383
14:00+21wsw3426100 0.0 10241948
17:00+20w3531100 0.0 10241864
20:00+17wsw224282 0.0 102316
12 may, wed
wed1223:00+14nnw81167100 0.1 1024617
02:00+10n6137269 0.3 1025615
05:00+8nnw6127390 0.3 1026553
08:00+11n814426 0.0 1028999
11:00+15n71036100 0.0 10271768
14:00+18n6833100 0.0 10262341
17:00+17n6739100 0.0 10251770
20:00+15nne365099 0.0 1025139